TimeCDT,TemperatureF,Dew PointF,Humidity,Sea Level PressureIn,VisibilityMPH,Wind Direction,Wind SpeedMPH,Gust SpeedMPH,PrecipitationIn,Events,Conditions,WindDirDegrees,DateUTC
12:52 AM,72.0,68.0,87,30.07,10.0,South,6.9,-,N/A,,Clear,170,2012-10-12 05:52:00
1:52 AM,69.1,66.9,93,30.05,10.0,SSE,6.9,-,N/A,,Clear,150,2012-10-12 06:52:00
2:52 AM,70.0,68.0,93,30.04,10.0,South,10.4,-,N/A,,Clear,180,2012-10-12 07:52:00
3:52 AM,70.0,68.0,93,30.03,10.0,South,10.4,-,N/A,,Clear,180,2012-10-12 08:52:00
4:52 AM,69.8,68.0,94,30.06,10.0,South,8.1,-,N/A,,Clear,170,2012-10-12 09:52:00
5:52 AM,68.0,66.9,96,30.04,9.0,SSE,5.8,-,N/A,,Partly Cloudy,150,2012-10-12 10:52:00
6:52 AM,70.0,69.1,97,30.06,9.0,South,10.4,-,N/A,,Scattered Clouds,170,2012-10-12 11:52:00
7:52 AM,69.1,68.0,96,30.08,7.0,SSE,6.9,-,N/A,,Scattered Clouds,150,2012-10-12 12:52:00
8:52 AM,71.6,69.8,94,30.13,10.0,South,9.2,-,N/A,,Clear,170,2012-10-12 13:52:00
9:21 AM,71.6,69.8,94,30.14,10.0,South,11.5,-,N/A,,Mostly Cloudy,180,2012-10-12 14:21:00
9:52 AM,73.0,69.1,87,30.12,10.0,South,11.5,-,N/A,,Mostly Cloudy,190,2012-10-12 14:52:00
10:52 AM,77.0,69.1,76,30.12,10.0,South,10.4,-,N/A,,Mostly Cloudy,190,2012-10-12 15:52:00
11:52 AM,80.6,69.8,70,30.14,10.0,South,11.5,-,N/A,,Partly Cloudy,190,2012-10-12 16:52:00
12:52 PM,81.0,69.1,67,30.09,10.0,SSW,9.2,-,N/A,,Scattered Clouds,200,2012-10-12 17:52:00
1:52 PM,84.9,69.1,59,30.06,10.0,South,11.5,-,N/A,,Mostly Cloudy,180,2012-10-12 18:52:00
2:52 PM,84.0,68.0,58,30.02,10.0,SSE,11.5,-,N/A,,Mostly Cloudy,160,2012-10-12 19:52:00
3:52 PM,84.9,68.0,57,30.00,10.0,SSE,16.1,21.9,N/A,,Scattered Clouds,160,2012-10-12 20:52:00
4:52 PM,84.0,66.0,55,30.01,10.0,SSE,13.8,-,N/A,,Mostly Cloudy,160,2012-10-12 21:52:00
5:52 PM,82.4,66.2,58,30.03,10.0,SSE,15.0,-,N/A,,Mostly Cloudy,150,2012-10-12 22:52:00
6:52 PM,80.1,66.0,62,29.99,10.0,SSE,11.5,-,N/A,,Partly Cloudy,150,2012-10-12 23:52:00
7:52 PM,79.0,66.0,64,30.00,10.0,SE,12.7,-,N/A,,Mostly Cloudy,140,2012-10-13 00:52:00
8:52 PM,75.9,66.0,71,30.01,10.0,SE,11.5,-,N/A,,Partly Cloudy,130,2012-10-13 01:52:00
9:52 PM,75.2,64.4,69,30.04,10.0,SE,17.3,23.0,N/A,,Clear,140,2012-10-13 02:52:00
10:52 PM,75.0,64.9,71,30.00,10.0,SSE,16.1,-,N/A,,Clear,150,2012-10-13 03:52:00
11:52 PM,73.4,64.4,73,30.03,10.0,SSE,16.1,-,N/A,,Clear,160,2012-10-13 04:52:00